When you browse on this site, cookies collect data to enhance your experience and personalize the content and advertising you see.
Visit our Privacy Policy to learn more. By continuing to use the site, you agree to this use of cookies and data.
  • In Lithuania
  • List of Countries
  • For 7 days
  • Water Temperature
  • Satellite Maps
  • Weather Map
  • Weather Widgets
  • user-avatar
    Login

    Hourly Weather Bamenda

    Today, 21 May, Tuesday

    Time Temperature Precipitation Wind Pressure Humidity
    00:00 +19°C° 0.3 mm 1 mps 641 mmHg 92%
    01:00 +19°C° 0 mm 1 mps 641 mmHg 92%
    02:00 +19°C° 0 mm 1 mps 641 mmHg 91%
    03:00 +19°C° 0 mm 1 mps 641 mmHg 91%
    04:00 +18°C° 0 mm 1 mps 641 mmHg 90%
    05:00 +17°C° 0 mm 0 mps 641 mmHg 89%
    06:00 +17°C° 0 mm 0 mps 641 mmHg 88%
    07:00 +20°C° 0 mm 1 mps 642 mmHg 83%
    08:00 +22°C° 0.1 mm 1 mps 643 mmHg 76%
    09:00 +24°C° 0.1 mm 1 mps 643 mmHg 69%
    10:00 +26°C° 0.1 mm 1 mps 644 mmHg 63%
    11:00 +26°C° 0.6 mm 1 mps 644 mmHg 62%
    12:00 +27°C° 0.6 mm 2 mps 643 mmHg 61%
    13:00 +27°C° 0 mm 2 mps 643 mmHg 60%
    14:00 +27°C° 0.8 mm 2 mps 642 mmHg 63%
    15:00 +26°C° 0.8 mm 2 mps 642 mmHg 66%
    16:00 +25°C° 0.8 mm 2 mps 641 mmHg 69%
    17:00 +24°C° 0.2 mm 1 mps 641 mmHg 76%
    18:00 +22°C° 0.2 mm 1 mps 640 mmHg 82%
    19:00 +18°C° 0.2 mm 0 mps 640 mmHg 88%
    20:00 +18°C° 0.1 mm 0 mps 640 mmHg 88%
    21:00 +17°C° 0.1 mm 0 mps 640 mmHg 88%
    22:00 +17°C° 0.1 mm 0 mps 640 mmHg 88%
    23:00 +17°C° 0 mm 0 mps 640 mmHg 87%

    Tomorrow, 22 May, Wednesday

    Time Temperature Precipitation Wind Pressure Humidity
    00:00 +17°C° 0 mm 0 mps 640 mmHg 87%
    01:00 +17°C° 0 mm 0 mps 640 mmHg 86%
    02:00 +19°C° 0 mm 1 mps 640 mmHg 86%
    03:00 +18°C° 0 mm 1 mps 640 mmHg 85%
    04:00 +18°C° 0 mm 1 mps 640 mmHg 85%
    05:00 +19°C° 0 mm 1 mps 640 mmHg 84%
    06:00 +19°C° 0 mm 1 mps 641 mmHg 84%
    07:00 +20°C° 0 mm 1 mps 641 mmHg 84%
    08:00 +22°C° 0.1 mm 1 mps 642 mmHg 76%
    09:00 +24°C° 0.1 mm 1 mps 643 mmHg 69%
    10:00 +26°C° 0.1 mm 1 mps 644 mmHg 62%
    11:00 +27°C° 0.8 mm 1 mps 644 mmHg 62%
    12:00 +27°C° 0.8 mm 1 mps 643 mmHg 63%
    13:00 +28°C° 0.8 mm 1 mps 643 mmHg 63%
    14:00 +27°C° 1.3 mm 1 mps 642 mmHg 65%
    15:00 +27°C° 1.3 mm 1 mps 642 mmHg 67%
    16:00 +26°C° 1.3 mm 1 mps 641 mmHg 70%
    17:00 +24°C° 1.2 mm 1 mps 641 mmHg 76%
    18:00 +20°C° 1.2 mm 0 mps 640 mmHg 82%
    19:00 +19°C° 1.2 mm 0 mps 640 mmHg 88%
    20:00 +18°C° 0.2 mm 0 mps 640 mmHg 88%
    21:00 +18°C° 0.2 mm 0 mps 641 mmHg 87%
    22:00 +20°C° 0.2 mm 1 mps 641 mmHg 87%
    23:00 +19°C° 0 mm 1 mps 641 mmHg 87%

    Day after tomorrow, 23 May, Thursday

    Time Temperature Precipitation Wind Pressure Humidity
    00:00 +19°C° 0 mm 1 mps 641 mmHg 86%
    01:00 +19°C° 0 mm 1 mps 640 mmHg 85%
    02:00 +19°C° 0 mm 1 mps 640 mmHg 84%
    03:00 +19°C° 0 mm 1 mps 640 mmHg 83%
    04:00 +19°C° 0 mm 1 mps 640 mmHg 82%
    05:00 +19°C° 0 mm 1 mps 640 mmHg 81%
    06:00 +20°C° 0 mm 1 mps 641 mmHg 81%
    07:00 +18°C° 0 mm 0 mps 641 mmHg 81%
    08:00 +20°C° 0 mm 0 mps 642 mmHg 74%
    09:00 +23°C° 0 mm 0 mps 643 mmHg 67%
    10:00 +25°C° 0 mm 0 mps 644 mmHg 61%
    11:00 +27°C° 0.2 mm 1 mps 643 mmHg 60%
    12:00 +28°C° 0.2 mm 1 mps 643 mmHg 59%
    13:00 +28°C° 0.2 mm 1 mps 643 mmHg 58%
    14:00 +28°C° 0.6 mm 1 mps 642 mmHg 61%
    15:00 +27°C° 0.6 mm 1 mps 641 mmHg 64%
    16:00 +27°C° 0.6 mm 1 mps 640 mmHg 68%
    17:00 +25°C° 1.7 mm 1 mps 640 mmHg 74%
    18:00 +23°C° 1.7 mm 1 mps 640 mmHg 80%
    19:00 +19°C° 1.7 mm 0 mps 640 mmHg 87%
    20:00 +21°C° 0.5 mm 1 mps 640 mmHg 87%
    21:00 +21°C° 0.5 mm 1 mps 641 mmHg 88%
    22:00 +20°C° 0.5 mm 1 mps 641 mmHg 88%
    23:00 +20°C° 0 mm 1 mps 641 mmHg 88%

    24 May, Friday

    Time Temperature Precipitation Wind Pressure Humidity
    00:00 +20°C° 0 mm 1 mps 640 mmHg 88%
    01:00 +20°C° 0 mm 1 mps 640 mmHg 87%
    02:00 +20°C° 0 mm 1 mps 640 mmHg 87%
    03:00 +20°C° 0 mm 1 mps 640 mmHg 86%
    04:00 +17°C° 0 mm 0 mps 640 mmHg 85%
    05:00 +18°C° 0.3 mm 0 mps 640 mmHg 85%
    06:00 +20°C° 0.3 mm 1 mps 641 mmHg 85%
    07:00 +20°C° 0.3 mm 1 mps 641 mmHg 85%
    08:00 +20°C° 0.3 mm 0 mps 642 mmHg 80%
    09:00 +22°C° 0.3 mm 0 mps 643 mmHg 75%
    10:00 +24°C° 0.3 mm 0 mps 644 mmHg 69%
    11:00 +24°C° 0.9 mm 0 mps 643 mmHg 68%
    12:00 +25°C° 0.9 mm 0 mps 643 mmHg 68%
    13:00 +25°C° 0.9 mm 0 mps 643 mmHg 67%
    14:00 +25°C° 0.7 mm 0 mps 642 mmHg 66%
    15:00 +27°C° 0.7 mm 1 mps 641 mmHg 65%
    16:00 +27°C° 0.7 mm 1 mps 640 mmHg 65%
    17:00 +23°C° 0.8 mm 0 mps 640 mmHg 72%
    18:00 +21°C° 0.8 mm 0 mps 640 mmHg 79%
    19:00 +19°C° 0.8 mm 0 mps 640 mmHg 86%
    20:00 +19°C° 0.8 mm 0 mps 640 mmHg 87%
    21:00 +21°C° 0.8 mm 1 mps 640 mmHg 87%
    22:00 +20°C° 0.8 mm 1 mps 641 mmHg 88%
    23:00 +20°C° 0.1 mm 1 mps 641 mmHg 88%

    25 May, Saturday

    Time Temperature Precipitation Wind Pressure Humidity
    00:00 +20°C° 0.1 mm 1 mps 641 mmHg 87%
    01:00 +20°C° 0.1 mm 1 mps 641 mmHg 87%
    02:00 +19°C° 0 mm 1 mps 641 mmHg 86%
    03:00 +17°C° 0 mm 0 mps 640 mmHg 85%
    04:00 +17°C° 0 mm 0 mps 640 mmHg 84%
    05:00 +17°C° 0.1 mm 0 mps 641 mmHg 85%
    06:00 +18°C° 0.1 mm 0 mps 641 mmHg 86%
    07:00 +18°C° 0.1 mm 0 mps 641 mmHg 86%
    08:00 +21°C° 0.2 mm 1 mps 642 mmHg 81%
    09:00 +23°C° 0.2 mm 1 mps 643 mmHg 76%
    10:00 +24°C° 0.2 mm 1 mps 644 mmHg 71%
    11:00 +25°C° 1.1 mm 1 mps 643 mmHg 69%
    12:00 +26°C° 1.1 mm 1 mps 643 mmHg 68%
    13:00 +27°C° 1.1 mm 1 mps 643 mmHg 66%
    14:00 +26°C° 1.5 mm 1 mps 642 mmHg 70%
    15:00 +26°C° 1.5 mm 1 mps 641 mmHg 74%
    16:00 +25°C° 1.5 mm 2 mps 641 mmHg 78%
    17:00 +23°C° 0.8 mm 2 mps 641 mmHg 82%
    18:00 +22°C° 0.8 mm 1 mps 641 mmHg 86%
    19:00 +20°C° 0.8 mm 1 mps 641 mmHg 90%
    20:00 +20°C° 0 mm 1 mps 641 mmHg 89%
    21:00 +20°C° 0 mm 1 mps 641 mmHg 88%
    22:00 +20°C° 0 mm 1 mps 641 mmHg 87%
    23:00 +19°C° 0 mm 1 mps 641 mmHg 85%

    26 May, Sunday

    Time Temperature Precipitation Wind Pressure Humidity
    00:00 +19°C° 0 mm 1 mps 640 mmHg 84%
    01:00 +19°C° 0 mm 1 mps 639 mmHg 83%
    02:00 +18°C° 0 mm 1 mps 639 mmHg 82%
    03:00 +18°C° 0 mm 1 mps 639 mmHg 81%
    04:00 +16°C° 0 mm 0 mps 639 mmHg 80%
    05:00 +18°C° 0 mm 1 mps 640 mmHg 80%
    06:00 +19°C° 0 mm 1 mps 641 mmHg 81%
    07:00 +19°C° 0 mm 1 mps 641 mmHg 81%
    08:00 +22°C° 0 mm 1 mps 642 mmHg 73%
    09:00 +24°C° 0 mm 1 mps 643 mmHg 65%
    10:00 +27°C° 0 mm 1 mps 644 mmHg 57%
    11:00 +27°C° 0.1 mm 1 mps 644 mmHg 56%
    12:00 +28°C° 0.1 mm 1 mps 643 mmHg 54%
    13:00 +29°C° 0.1 mm 1 mps 642 mmHg 53%
    14:00 +28°C° 0.5 mm 1 mps 642 mmHg 57%
    15:00 +27°C° 0.5 mm 1 mps 641 mmHg 60%
    16:00 +27°C° 0.5 mm 1 mps 640 mmHg 64%
    17:00 +25°C° 0.6 mm 1 mps 640 mmHg 70%
    18:00 +21°C° 0.6 mm 0 mps 640 mmHg 77%
    19:00 +19°C° 0.6 mm 0 mps 640 mmHg 84%
    20:00 +18°C° 0.3 mm 0 mps 640 mmHg 85%
    21:00 +20°C° 0.3 mm 1 mps 640 mmHg 86%
    22:00 +20°C° 0.3 mm 1 mps 641 mmHg 87%
    23:00 +19°C° 0.1 mm 1 mps 640 mmHg 87%
    Show more